GW2646 Weather Reports


time (UTC)temp
C
wind
direction
speed
KPH
gust
KPH
rain 1hr
cm
rain 24hr
cm
rain mn
cm
humidity
%
barometer
mb
20260505224045 16 215 4.8 9.7 0.00 0.00 0.00 76 1015.7
20260505223545 16 203 1.6 11.3 0.00 0.00 0.00 76 1015.7
20260505223057 16 211 4.8 11.3 0.00 0.00 0.00 77 1015.7
20260505222550 16 252 4.8 14.5 0.00 0.00 0.00 77 1015.7
20260505222046 16 191 3.2 14.5 0.00 0.00 0.00 76 1015.8
20260505221551 16 213 3.2 9.7 0.00 0.00 0.00 76 1015.8
20260505221047 16 147 4.8 12.9 0.00 0.00 0.00 76 1015.8
20260505220547 16 0 3.2 12.9 0.00 0.00 0.00 77 1015.8
20260505220100 16 226 4.8 11.3 0.00 0.00 0.00 77 1015.8
20260505215546 16 118 4.8 11.3 0.00 0.00 0.00 77 1015.8
20260505215045 15 145 3.2 12.9 0.00 0.00 0.00 78 1015.9
20260505214557 15 163 4.8 12.9 0.00 0.00 0.00 78 1015.9
20260505214045 15 173 4.8 12.9 0.00 0.00 0.00 79 1015.8
20260505213544 15 186 4.8 12.9 0.00 0.00 0.00 79 1015.8
20260505213054 15 164 4.8 12.9 0.00 0.00 0.00 79 1015.9
20260505212546 15 188 3.2 12.9 0.00 0.00 0.00 80 1015.9
20260505212045 15 184 4.8 12.9 0.00 0.00 0.00 80 1015.9
20260505211549 15 222 4.8 12.9 0.00 0.00 0.00 80 1015.9
20260505211046 15 212 4.8 12.9 0.00 0.00 0.00 80 1016.0
20260505210544 15 259 1.6 11.3 0.00 0.00 0.00 80 1016.0
20260505210050 15 226 3.2 11.3 0.00 0.00 0.00 80 1016.0
20260505205546 15 213 1.6 11.3 0.00 0.00 0.00 80 1016.0
20260505205047 15 232 1.6 9.7 0.00 0.00 0.00 81 1016.1
20260505204551 15 155 3.2 9.7 0.00 0.00 0.00 81 1016.0
20260505204047 15 215 3.2 9.7 0.00 0.00 0.00 81 1016.1
20260505203545 15 214 1.6 12.9 0.00 0.00 0.00 82 1016.2
20260505203110 14 189 3.2 14.5 0.00 0.00 0.00 81 1016.2
20260505202546 15 207 4.8 14.5 0.00 0.00 0.00 81 1016.1
20260505202047 15 195 4.8 14.5 0.00 0.00 0.00 81 1016.1
20260505201601 15 168 3.2 11.3 0.00 0.00 0.00 81 1016.1
20260505201047 14 228 1.6 8.0 0.00 0.00 0.00 84 1016.1
20260505200547 14 217 1.6 11.3 0.00 0.00 0.00 83 1016.0
20260505200054 14 168 4.8 11.3 0.00 0.00 0.00 83 1016.1
20260505195548 14 231 3.2 11.3 0.00 0.00 0.00 83 1016.1
20260505195046 13 216 1.6 11.3 0.00 0.00 0.00 84 1016.1
20260505194557 13 223 4.8 11.3 0.00 0.00 0.00 84 1016.2
20260505194046 13 246 4.8 11.3 0.00 0.00 0.00 84 1016.1
20260505193545 13 209 3.2 11.3 0.00 0.00 0.00 84 1016.1
20260505193053 13 183 1.6 12.9 0.00 0.00 0.00 84 1016.1
20260505192547 13 0 1.6 12.9 0.00 0.00 0.00 84 1016.1
20260505192045 13 248 4.8 11.3 0.00 0.00 0.00 83 1016.0
20260505191608 13 239 3.2 9.7 0.00 0.00 0.00 84 1016.0
20260505191046 13 221 0.0 9.7 0.00 0.00 0.00 84 1016.0
20260505190547 13 205 3.2 8.0 0.00 0.00 0.00 84 1016.0
20260505190051 13 0 1.6 11.3 0.00 0.00 0.00 84 1016.0
20260505185547 13 161 4.8 12.9 0.00 0.00 0.00 84 1016.1
20260505185047 13 196 3.2 12.9 0.00 0.00 0.00 85 1015.9
20260505184552 13 205 4.8 12.9 0.00 0.00 0.00 85 1016.0
20260505184047 13 163 3.2 11.3 0.00 0.00 0.00 85 1015.9
20260505183548 13 212 3.2 11.3 0.00 0.00 0.00 85 1015.9
20260505183055 13 206 1.6 11.3 0.00 0.00 0.00 84 1015.9
20260505182544 13 203 3.2 9.7 0.00 0.00 0.00 84 1015.9
20260505182046 13 0 3.2 9.7 0.00 0.00 0.00 84 1015.8
20260505181553 13 217 1.6 11.3 0.00 0.00 0.00 85 1015.8
20260505181045 13 172 1.6 11.3 0.00 0.00 0.00 85 1015.8
20260505180543 13 144 3.2 9.7 0.00 0.00 0.00 86 1015.8
20260505175545 13 167 3.2 11.3 0.00 0.00 0.00 86 1015.8
20260505175045 13 167 4.8 11.3 0.00 0.00 0.00 86 1015.8
20260505174605 13 175 1.6 9.7 0.00 0.00 0.00 87 1015.9
20260505174047 13 213 3.2 12.9 0.00 0.00 0.00 87 1015.9
20260505173549 13 199 4.8 12.9 0.00 0.00 0.00 87 1015.9
20260505173057 13 142 4.8 11.3 0.00 0.00 0.00 87 1015.8
20260505172545 13 0 1.6 11.3 0.00 0.00 0.00 87 1015.8
20260505172044 12 180 3.2 11.3 0.00 0.00 0.00 87 1015.7
20260505171551 12 196 4.8 9.7 0.00 0.00 0.00 87 1015.8
20260505171047 12 176 1.6 9.7 0.00 0.00 0.00 87 1015.8
20260505170543 12 0 3.2 8.0 0.00 0.00 0.00 87 1015.8
20260505170107 12 225 1.6 6.4 0.00 0.00 0.00 87 1015.8
20260505165546 12 146 0.0 4.8 0.00 0.00 0.00 88 1015.8
20260505165050 12 0 1.6 8.0 0.00 0.00 0.00 88 1015.8
20260505164553 12 202 1.6 9.7 0.00 0.00 0.00 88 1015.8
20260505164046 12 213 4.8 9.7 0.00 0.00 0.00 87 1015.8
20260505163548 12 156 1.6 8.0 0.00 0.00 0.00 88 1015.7
20260505163052 12 164 1.6 8.0 0.00 0.00 0.00 88 1015.7
20260505162543 12 172 1.6 8.0 0.00 0.00 0.00 88 1015.7
20260505162047 12 0 1.6 9.7 0.00 0.00 0.00 88 1015.7
20260505161610 12 165 0.0 9.7 0.00 0.00 0.00 88 1015.7
20260505161046 12 157 1.6 8.0 0.00 0.00 0.00 88 1015.7
20260505160546 12 217 3.2 11.3 0.00 0.00 0.00 88 1015.7
20260505153100 12 160 3.2 9.7 0.00 0.00 0.00 90 1015.4
20260505152548 12 160 0.0 8.0 0.00 0.00 0.00 90 1015.5
20260505152045 12 161 1.6 9.7 0.00 0.00 0.00 90 1015.4
20260505151601 11 161 1.6 9.7 0.00 0.00 0.00 90 1015.3
20260505151045 11 161 3.2 14.5 0.00 0.00 0.00 91 1015.2
20260505150546 11 168 3.2 14.5 0.00 0.00 0.00 91 1015.3
20260505140545 11 169 0.0 8.0 0.00 0.00 0.00 92 1014.8
20260505140104 11 170 1.6 8.0 0.00 0.00 0.00 92 1014.7
20260505124551 10 167 1.6 8.0 0.00 0.00 0.00 94 1013.8
20260505124047 10 0 1.6 8.0 0.00 0.00 0.00 94 1013.8
20260505123546 10 167 3.2 8.0 0.00 0.00 0.00 94 1013.7
20260505123049 10 163 0.0 6.4 0.00 0.00 0.00 94 1013.7
20260505122548 10 0 0.0 6.4 0.00 0.00 0.00 93 1013.7
20260505122046 10 163 1.6 8.0 0.00 0.00 0.00 93 1013.7
20260505121612 10 0 1.6 9.7 0.00 0.00 0.00 93 1013.7
20260505121046 10 163 4.8 9.7 0.00 0.00 0.00 93 1013.6
20260505120546 10 174 1.6 4.8 0.00 0.00 0.00 93 1013.6
20260505120055 10 174 0.0 4.8 0.00 0.00 0.00 93 1013.6
20260505115551 10 174 0.0 4.8 0.00 0.00 0.00 93 1013.6
20260505115047 10 174 1.6 9.7 0.00 0.00 0.00 94 1013.6
20260505114551 10 174 1.6 9.7 0.00 0.00 0.00 94 1013.5
20260505114045 10 0 1.6 6.4 0.00 0.00 0.00 93 1013.5
20260505113546 10 178 0.0 4.8 0.00 0.00 0.00 93 1013.6
20260505113052 10 238 0.0 4.8 0.00 0.00 0.00 93 1013.6
20260505112547 9 0 0.0 4.8 0.00 0.00 0.00 93 1013.6
20260505112046 9 0 0.0 3.2 0.00 0.00 0.00 93 1013.6
20260505111550 9 0 0.0 3.2 0.00 0.00 0.00 93 1013.5
20260505111046 9 0 0.0 0.0 0.00 0.00 0.00 92 1013.5
20260505110545 9 0 0.0 1.6 0.00 0.00 0.00 92 1013.4
20260505102046 9 0 0.0 0.0 0.00 0.00 0.00 91 1013.1
20260505101558 9 0 0.0 0.0 0.00 0.00 0.00 91 1013.1
20260505101046 9 0 0.0 0.0 0.00 0.00 0.00 91 1013.1
20260505100544 9 0 0.0 0.0 0.00 0.00 0.00 90 1013.1
20260505100101 10 0 0.0 0.0 0.00 0.00 0.00 90 1013.0
20260505095545 10 0 0.0 0.0 0.00 0.00 0.00 90 1013.0
20260505095046 10 0 0.0 0.0 0.00 0.00 0.00 90 1013.0
20260505094552 10 0 0.0 0.0 0.00 0.00 0.00 89 1012.9
20260505094045 10 0 0.0 0.0 0.00 0.00 0.00 89 1012.8
20260505093545 10 0 0.0 0.0 0.00 0.00 0.00 89 1012.7
20260505093054 10 0 0.0 0.0 0.00 0.00 0.00 89 1012.7
20260505092549 10 0 0.0 0.0 0.00 0.00 0.00 88 1012.7
20260505092047 10 0 0.0 1.6 0.00 0.00 0.00 88 1012.5
20260505091550 10 0 0.0 1.6 0.00 0.00 0.00 88 1012.4
20260505091048 10 0 0.0 0.0 0.00 0.00 0.00 88 1012.4
20260505090546 10 0 0.0 4.8 0.00 0.00 0.00 88 1012.4
20260505085546 10 322 1.6 4.8 0.00 0.00 0.00 87 1012.3
20260505085046 10 322 0.0 3.2 0.00 0.00 0.00 87 1012.3
20260505084554 11 0 0.0 3.2 0.00 0.00 0.00 87 1012.3
20260505084045 11 0 0.0 0.0 0.00 0.00 0.00 86 1012.2
20260505083545 11 0 0.0 0.0 0.00 0.00 0.00 86 1012.1
20260505083056 11 0 0.0 0.0 0.00 0.00 0.00 86 1012.1
20260505082545 11 0 0.0 0.0 0.00 0.00 0.00 85 1012.1
20260505082045 11 0 0.0 0.0 0.00 0.00 0.00 85 1012.1
20260505081557 11 0 0.0 0.0 0.00 0.00 0.00 84 1012.1
20260505081045 11 0 0.0 0.0 0.00 0.00 0.00 84 1012.1
20260505080545 11 0 0.0 0.0 0.00 0.00 0.00 83 1012.0
20260505080055 12 0 0.0 0.0 0.00 0.00 0.00 82 1012.0
20260505075547 12 0 0.0 0.0 0.00 0.00 0.00 82 1012.0
20260505075045 12 0 0.0 1.6 0.00 0.00 0.00 81 1012.1
20260505074557 12 0 0.0 1.6 0.00 0.00 0.00 80 1012.1
20260505074046 12 0 0.0 1.6 0.00 0.00 0.00 80 1011.9
20260505073550 12 0 0.0 3.2 0.00 0.00 0.00 80 1011.9
20260505073059 12 0 0.0 3.2 0.00 0.00 0.00 79 1011.7
20260505072549 12 322 0.0 4.8 0.00 0.00 0.00 79 1011.6
20260505072049 13 0 0.0 4.8 0.00 0.00 0.00 78 1011.7
20260505071556 13 0 0.0 4.8 0.00 0.00 0.00 78 1011.5
20260505071044 13 322 0.0 4.8 0.00 0.00 0.00 77 1011.6
20260505070545 13 322 0.0 4.8 0.00 0.00 0.00 77 1011.5
20260505070051 13 296 1.6 4.8 0.00 0.00 0.00 76 1011.4
20260505065547 13 0 1.6 4.8 0.00 0.00 0.00 75 1011.4
20260505065046 13 303 0.0 4.8 0.00 0.00 0.00 75 1011.4
20260505064556 13 335 0.0 4.8 0.00 0.00 0.00 75 1011.4
20260505064043 13 0 0.0 4.8 0.00 0.00 0.00 75 1011.4
20260505063546 13 340 0.0 1.6 0.00 0.00 0.00 75 1011.3
20260505063053 13 0 0.0 1.6 0.00 0.00 0.00 75 1011.3
20260505062546 13 0 0.0 3.2 0.00 0.00 0.00 75 1011.2
20260505062045 13 0 0.0 3.2 0.00 0.00 0.00 75 1011.0
20260505061602 13 0 0.0 3.2 0.00 0.00 0.00 74 1010.9
20260505061043 13 360 0.0 1.6 0.00 0.00 0.00 75 1010.8
20260505060545 13 0 0.0 1.6 0.00 0.00 0.00 75 1010.7
20260505060058 14 0 0.0 1.6 0.00 0.00 0.00 74 1010.8
20260505055546 14 0 0.0 1.6 0.00 0.00 0.00 73 1010.7
20260505055046 14 0 0.0 6.4 0.00 0.00 0.00 73 1010.7
20260505054557 14 0 0.0 6.4 0.00 0.00 0.00 72 1010.7
20260505054046 15 327 0.0 3.2 0.00 0.00 0.00 72 1010.7
20260505053544 15 0 0.0 1.6 0.00 0.00 0.00 72 1010.8
20260505053106 14 0 0.0 1.6 0.00 0.00 0.00 71 1010.7
20260505052546 15 0 0.0 1.6 0.00 0.00 0.00 71 1010.7
20260505052046 15 0 0.0 4.8 0.00 0.00 0.00 71 1010.6
20260505051552 15 0 0.0 4.8 0.00 0.00 0.00 71 1010.6
20260505051045 15 0 0.0 6.4 0.00 0.00 0.00 70 1010.6
20260505050546 15 0 0.0 6.4 0.00 0.00 0.00 70 1010.6
20260505041550 16 0 0.0 1.6 0.00 0.00 0.00 69 1010.4
20260505041045 16 0 0.0 1.6 0.00 0.00 0.00 67 1010.3
20260505040547 16 0 0.0 3.2 0.00 0.00 0.00 67 1010.3
20260505040052 17 0 0.0 3.2 0.00 0.00 0.00 66 1010.2
20260505035546 17 360 0.0 3.2 0.00 0.00 0.00 67 1010.2
20260505035048 17 352 0.0 4.8 0.00 0.00 0.00 66 1010.1
20260505034552 17 352 0.0 6.4 0.00 0.00 0.00 64 1010.1
20260505034046 17 311 1.6 11.3 0.00 0.00 0.00 64 1010.1
20260505033547 18 13 1.6 11.3 0.00 0.00 0.00 64 1009.9
20260505033114 18 307 3.2 11.3 0.00 0.00 0.00 62 1009.9
20260505032546 18 350 0.0 6.4 0.00 0.00 0.00 62 1009.9
20260505032045 18 333 1.6 6.4 0.00 0.00 0.00 62 1010.0
20260505031553 19 0 0.0 6.4 0.00 0.00 0.00 63 1009.9
20260505031049 19 349 0.0 6.4 0.00 0.00 0.00 62 1009.8
20260505030543 20 305 1.6 6.4 0.00 0.00 0.00 61 1009.8
20260505030055 20 313 1.6 8.0 0.00 0.00 0.00 60 1009.8
20260505025545 20 302 1.6 8.0 0.00 0.00 0.00 59 1009.7
20260505025045 20 306 1.6 6.4 0.00 0.00 0.00 57 1009.6
20260505024604 20 0 1.6 8.0 0.00 0.00 0.00 56 1009.6
20260505024046 21 0 3.2 9.7 0.00 0.00 0.00 55 1009.6
20260505023547 21 336 3.2 9.7 0.00 0.00 0.00 54 1009.5
20260505023106 21 301 3.2 11.3 0.00 0.00 0.00 53 1009.5
20260505022549 21 323 4.8 11.3 0.00 0.00 0.00 52 1009.4
20260505022050 21 300 3.2 16.1 0.00 0.00 0.00 51 1009.4
20260505021601 21 315 6.4 16.1 0.00 0.00 0.00 50 1009.4
20260505021045 22 263 4.8 16.1 0.00 0.00 0.00 51 1009.4
20260505020545 22 302 4.8 16.1 0.00 0.00 0.00 50 1009.3
20260505020057 22 348 4.8 16.1 0.00 0.00 0.00 49 1009.3
20260505015546 22 350 8.0 17.7 0.00 0.00 0.00 48 1009.2
20260505015046 23 341 8.0 17.7 0.00 0.00 0.00 48 1009.2
20260505014556 23 306 4.8 14.5 0.00 0.00 0.00 49 1009.2
20260505014045 23 272 3.2 12.9 0.00 0.00 0.00 48 1009.2
20260505013544 23 0 3.2 12.9 0.00 0.00 0.00 50 1009.1
20260505013105 23 334 4.8 16.1 0.00 0.00 0.00 50 1009.2
20260505012547 23 9 3.2 17.7 0.00 0.00 0.00 50 1009.1
20260505012047 23 333 3.2 17.7 0.00 0.00 0.00 50 1009.1
20260505011601 24 15 6.4 17.7 0.00 0.00 0.00 49 1009.1
20260505011047 24 317 6.4 17.7 0.00 0.00 0.00 49 1009.1
20260505010547 24 326 6.4 16.1 0.00 0.00 0.00 48 1009.1
20260505010109 25 281 4.8 16.1 0.00 0.00 0.00 46 1009.0
20260505005548 25 333 6.4 14.5 0.00 0.00 0.00 45 1009.1
20260505005048 26 308 4.8 16.1 0.00 0.00 0.00 42 1009.0
20260505004559 26 294 4.8 16.1 0.00 0.00 0.00 42 1008.9
20260505004050 26 291 3.2 12.9 0.00 0.00 0.00 40 1008.9
20260505003547 26 284 3.2 12.9 0.00 0.00 0.00 39 1008.9
20260505003053 26 342 3.2 14.5 0.00 0.00 0.00 39 1008.9
20260505002547 26 294 4.8 14.5 0.00 0.00 0.00 38 1008.9
20260505002047 26 0 1.6 9.7 0.00 0.00 0.00 39 1008.9
20260505001558 26 281 3.2 17.7 0.00 0.00 0.00 39 1009.0
20260505001049 26 288 1.6 17.7 0.00 0.00 0.00 38 1009.0
20260505000551 26 286 3.2 17.7 0.00 0.00 0.00 37 1009.1
20260505000101 26 235 1.6 9.7 0.00 0.00 0.00 38 1009.1
20260504235549 26 296 0.0 11.3 0.00 0.00 0.00 39 1009.2
20260504235049 26 352 3.2 11.3 0.00 0.00 0.00 38 1009.1
20260504234616 26 326 3.2 9.7 0.00 0.00 0.00 38 1009.1
20260504234048 26 308 3.2 9.7 0.00 0.00 0.00 40 1009.2
20260504233548 26 317 1.6 14.5 0.00 0.00 0.00 39 1009.3
20260504233058 26 223 4.8 14.5 0.00 0.00 0.00 41 1009.3
20260504232548 26 163 4.8 12.9 0.00 0.00 0.00 40 1009.3
20260504232047 26 163 3.2 12.9 0.00 0.00 0.00 40 1009.3
20260504231559 26 203 3.2 16.1 0.00 0.00 0.00 40 1009.3
20260504231045 25 225 6.4 16.1 0.00 0.00 0.00 41 1009.4
20260504230547 26 221 6.4 11.3 0.00 0.00 0.00 41 1009.4
20260504230053 27 208 3.2 12.9 0.00 0.00 0.00 40 1009.4
20260504225549 26 155 3.2 16.1 0.00 0.00 0.00 42 1009.4
20260504225049 25 0 4.8 16.1 0.00 0.00 0.00 41 1009.4
20260504224604 26 277 3.2 16.1 0.00 0.00 0.00 40 1009.4